KD8PH Weather Reports


Display with metric or nautical units.
time (UTC)temp
F
wind
direction
speed
MPH
gust
MPH
rain 1hr
in
rain 24hr
in
rain mn
in
humidity
%
barometer
mb
20260906004022 81 0.0 0.0 0.00 0.03 0.03 81 1009.0
20260906003022 81 0.0 0.0 0.00 0.03 0.03 82 1009.1
20260906002022 82 0.0 0.0 0.00 0.03 0.03 83 1009.6
20260906001024 83 0.0 0.0 0.00 0.03 0.03 82 1009.5
20260906000022 82 0.0 0.0 0.00 0.03 0.03 77 1009.2
20260905235022 83 0.0 0.0 0.00 0.03 0.03 81 1009.4
20260905234022 84 0.0 0.0 0.00 0.03 0.03 78 1009.5
20260905233022 85 0.0 0.0 0.00 0.03 0.03 75 1009.5
20260905232022 85 0.0 0.0 0.00 0.03 0.03 69 1009.3
20260905231022 85 0.0 0.0 0.03 0.03 0.03 69 1009.3
20260905230022 85 0.0 0.0 0.03 0.03 0.03 69 1009.2
20260905225022 85 0.0 0.0 0.03 0.03 0.03 70 1009.2
20260905224022 85 0.0 0.0 0.03 0.03 0.03 66 1009.1
20260905223021 85 0.0 0.0 0.03 0.03 0.03 63 1009.1
20260905222021 87 23 3.0 15.0 0.03 0.03 0.03 52 1009.1
20260905221021 90 0.0 0.0 0.00 0.00 0.00 60 1009.5
20260905220024 92 0.0 0.0 0.00 0.00 0.00 57 1009.8
20260905215022 97 0.0 0.0 0.00 0.00 0.00 50 1009.6
20260905214022 97 0.0 0.0 0.00 0.00 0.00 52 1009.2
20260905213021 97 0.0 0.0 0.00 0.00 0.00 54 1009.3
20260905212029 97 0.0 0.0 0.00 0.00 0.00 55 1009.3
20260905211021 96 0.0 0.0 0.00 0.00 0.00 55 1009.3
20260905210022 96 0.0 0.0 0.00 0.00 0.00 54 1009.2
20260905205021 95 0.0 0.0 0.00 0.00 0.00 59 1009.2
20260905204021 95 0.0 0.0 0.00 0.00 0.00 58 1009.4
20260905203021 95 0.0 0.0 0.00 0.00 0.00 58 1009.5
20260905202022 95 0.0 0.0 0.00 0.00 0.00 56 1009.6
20260905201021 95 0.0 0.0 0.00 0.00 0.00 56 1010.0
20260905200022 94 0.0 0.0 0.00 0.00 0.00 57 1010.1
20260905195021 95 0.0 0.0 0.00 0.00 0.00 56 1010.3
20260905194021 95 0.0 0.0 0.00 0.00 0.00 56 1010.4
20260905193021 95 0.0 0.0 0.00 0.00 0.00 56 1010.4
20260905192021 95 0.0 0.0 0.00 0.00 0.00 55 1010.5
20260905191027 94 0.0 0.0 0.00 0.00 0.00 57 1010.7
20260905190021 94 0.0 0.0 0.00 0.00 0.00 60 1010.8
20260905185021 93 0.0 0.0 0.00 0.00 0.00 59 1011.0
20260905184021 93 0.0 0.0 0.00 0.00 0.00 61 1011.1
20260905183021 93 0.0 0.0 0.00 0.00 0.00 61 1011.3
20260905182021 93 0.0 0.0 0.00 0.00 0.00 60 1011.4
20260905181021 93 0.0 0.0 0.00 0.00 0.00 63 1011.7
20260905180021 92 0.0 0.0 0.00 0.00 0.00 67 1011.7
20260905175021 92 0.0 0.0 0.00 0.00 0.00 65 1011.7
20260905174021 91 0.0 0.0 0.00 0.00 0.00 66 1011.8
20260905173021 91 0.0 0.0 0.00 0.00 0.00 66 1011.9
20260905172021 90 0.0 0.0 0.00 0.00 0.00 71 1012.1
20260905171024 90 0.0 0.0 0.00 0.00 0.00 71 1012.1
20260905170023 89 0.0 0.0 0.00 0.00 0.00 75 1012.3
20260905165023 89 0.0 0.0 0.00 0.00 0.00 74 1012.4
20260905164023 89 0.0 0.0 0.00 0.00 0.00 75 1012.4
20260905163023 88 0.0 0.0 0.00 0.00 0.00 78 1012.6
20260905162028 87 0.0 0.0 0.00 0.00 0.00 78 1012.8
20260905161022 86 0.0 0.0 0.00 0.00 0.00 78 1012.9
20260905160022 86 0.0 0.0 0.00 0.00 0.00 78 1012.9
20260905155023 86 0.0 0.0 0.00 0.00 0.00 79 1013.0
20260905154023 86 0.0 0.0 0.00 0.00 0.00 80 1013.1
20260905153023 85 0.0 0.0 0.00 0.00 0.00 81 1013.1
20260905152022 85 0.0 0.0 0.00 0.00 0.00 81 1013.2
20260905151023 84 0.0 0.0 0.00 0.00 0.00 83 1013.2
20260905150023 83 0.0 0.0 0.00 0.00 0.00 83 1013.1
20260905145022 83 0.0 0.0 0.00 0.00 0.00 84 1013.1
20260905144022 83 0.0 0.0 0.00 0.00 0.00 84 1013.2
20260905143022 83 0.0 0.0 0.00 0.00 0.00 85 1013.3
20260905142022 82 0.0 0.0 0.00 0.00 0.00 85 1013.3
20260905141022 82 0.0 0.0 0.00 0.00 0.00 86 1013.4
20260905140022 82 0.0 0.0 0.00 0.00 0.00 85 1013.4
20260905135022 82 0.0 0.0 0.00 0.00 0.00 86 1013.5
20260905134022 82 0.0 0.0 0.00 0.00 0.00 86 1013.5
20260905133022 82 0.0 0.0 0.00 0.00 0.00 87 1013.7
20260905132026 81 0.0 0.0 0.00 0.00 0.00 87 1013.7
20260905131022 81 0.0 0.0 0.00 0.00 0.00 88 1013.9
20260905130024 81 0.0 0.0 0.00 0.00 0.00 88 1013.8
20260905125022 80 0.0 0.0 0.00 0.00 0.00 89 1013.7
20260905124022 79 0.0 0.0 0.00 0.00 0.00 90 1013.7
20260905123022 78 0.0 0.0 0.00 0.00 0.00 90 1013.6
20260905122023 78 0.0 0.0 0.00 0.00 0.00 90 1013.6
20260905121022 78 0.0 0.0 0.00 0.00 0.00 91 1013.6
20260905120022 77 0.0 0.0 0.00 0.00 0.00 91 1013.5
20260905115022 77 0.0 0.0 0.00 0.00 0.00 91 1013.3
20260905114022 77 0.0 0.0 0.00 0.00 0.00 91 1013.3
20260905113031 76 0.0 0.0 0.00 0.00 0.00 91 1013.1
20260905112022 76 0.0 0.0 0.00 0.00 0.00 91 1013.1
20260905111022 76 0.0 0.0 0.00 0.00 0.00 90 1012.8
20260905110022 76 0.0 0.0 0.00 0.00 0.00 90 1012.7
20260905105022 76 0.0 0.0 0.00 0.00 0.00 90 1012.6
20260905104022 76 0.0 0.0 0.00 0.00 0.00 90 1012.5
20260905103022 76 0.0 0.0 0.00 0.00 0.00 90 1012.3
20260905102022 77 0.0 0.0 0.00 0.00 0.00 90 1012.1
20260905101022 77 0.0 0.0 0.00 0.00 0.00 90 1012.3
20260905100027 77 0.0 0.0 0.00 0.00 0.00 90 1012.3
20260905095022 77 0.0 0.0 0.00 0.00 0.00 90 1012.3
20260905094022 77 0.0 0.0 0.00 0.00 0.00 90 1012.5
20260905093022 77 0.0 0.0 0.00 0.00 0.00 90 1012.3
20260905092022 77 0.0 0.0 0.00 0.00 0.00 90 1012.3
20260905091022 77 0.0 0.0 0.00 0.00 0.00 90 1012.1
20260905090022 77 0.0 0.0 0.00 0.00 0.00 89 1012.0
20260905085022 77 0.0 0.0 0.00 0.00 0.00 89 1012.0
20260905084022 77 0.0 0.0 0.00 0.00 0.00 89 1012.0
20260905083021 78 0.0 0.0 0.00 0.00 0.00 89 1012.1
20260905082022 78 0.0 0.0 0.00 0.00 0.00 88 1012.0
20260905081022 78 0.0 0.0 0.00 0.00 0.00 88 1011.9
20260905080022 78 0.0 0.0 0.00 0.00 0.00 88 1012.0
20260905075021 78 0.0 0.0 0.00 0.00 0.00 89 1012.0
20260905074021 78 0.0 0.0 0.00 0.00 0.00 88 1012.1
20260905073021 78 0.0 0.0 0.00 0.00 0.00 88 1011.9
20260905072021 78 0.0 0.0 0.00 0.00 0.00 89 1012.0
20260905071024 78 0.0 0.0 0.00 0.00 0.00 88 1011.7
20260905070021 78 0.0 0.0 0.00 0.00 0.00 88 1011.7
20260905065021 78 0.0 0.0 0.00 0.00 0.00 88 1011.8
20260905064021 79 0.0 0.0 0.00 0.00 0.00 88 1012.0
20260905063022 79 0.0 0.0 0.00 0.00 0.00 88 1012.0
20260905062021 79 0.0 0.0 0.00 0.00 0.00 87 1012.1
20260905061022 79 0.0 0.0 0.00 0.00 0.00 87 1012.1
20260905060021 79 0.0 0.0 0.00 0.00 0.00 87 1012.2
20260905055021 80 0.0 0.0 0.00 0.00 0.00 87 1012.4
20260905054021 80 0.0 0.0 0.00 0.00 0.00 87 1012.5
20260905053021 79 0.0 0.0 0.00 0.00 0.00 87 1012.3
20260905052021 80 0.0 0.0 0.00 0.00 0.00 87 1012.3
20260905051027 80 0.0 0.0 0.00 0.00 0.00 87 1012.4
20260905050021 80 0.0 0.0 0.00 0.00 0.00 87 1012.3
20260905045021 80 0.0 0.0 0.00 0.00 0.00 86 1012.3
20260905044021 80 0.0 0.0 0.00 0.00 0.00 86 1012.4
20260905043021 80 0.0 0.0 0.00 0.00 0.00 86 1012.4
20260905042023 81 0.0 0.0 0.00 0.00 0.00 85 1012.5
20260905041023 81 0.0 0.0 0.00 0.00 0.00 85 1012.5
20260905040026 81 0.0 0.0 0.00 0.00 0.00 84 1012.5
20260905035023 81 0.0 0.0 0.00 0.00 0.00 84 1012.6
20260905034023 82 0.0 0.0 0.00 0.00 0.00 84 1012.7
20260905033023 82 0.0 0.0 0.00 0.00 0.00 83 1012.7
20260905032023 82 0.0 0.0 0.00 0.00 0.00 84 1012.8
20260905031023 82 0.0 0.0 0.00 0.00 0.00 83 1012.9
20260905030023 83 0.0 0.0 0.00 0.00 0.00 82 1012.9
20260905025023 83 0.0 0.0 0.00 0.00 0.00 81 1012.9
20260905024022 84 0.0 0.0 0.00 0.00 0.00 81 1013.1
20260905023022 85 0.0 0.0 0.00 0.00 0.00 82 1013.1
20260905022022 84 0.0 0.0 0.00 0.00 0.00 82 1013.2
20260905021026 84 0.0 0.0 0.00 0.00 0.00 80 1013.1
20260905020022 85 0.0 0.0 0.00 0.00 0.00 80 1013.1
20260905015042 85 0.0 0.0 0.00 0.00 0.00 79 1012.9
20260905014022 86 0.0 0.0 0.00 0.00 0.00 81 1012.8
20260905013023 85 0.0 0.0 0.00 0.00 0.00 80 1012.8
20260905012022 86 0.0 0.0 0.00 0.00 0.00 77 1012.7
20260905011023 86 0.0 0.0 0.00 0.00 0.00 77 1012.7
20260905010022 87 0.0 0.0 0.00 0.00 0.00 77 1012.7
20260905005022 87 0.0 0.0 0.00 0.00 0.00 74 1012.5